TimeCDT,TemperatureF,Dew PointF,Humidity,Sea Level PressureIn,VisibilityMPH,Wind Direction,Wind SpeedMPH,Gust SpeedMPH,PrecipitationIn,Events,Conditions,WindDirDegrees,DateUTC
12:52 AM,50.0,35.1,57,29.89,10.0,NW,17.3,21.9,N/A,,Mostly Cloudy,310,2011-11-01 05:52:00
1:52 AM,46.0,34.0,63,29.92,10.0,NNW,17.3,24.2,N/A,,Partly Cloudy,330,2011-11-01 06:52:00
2:52 AM,44.1,34.0,68,29.96,10.0,NW,10.4,-,N/A,,Clear,320,2011-11-01 07:52:00
3:52 AM,42.1,35.1,76,29.98,10.0,NW,12.7,-,N/A,,Clear,310,2011-11-01 08:52:00
4:52 AM,41.0,35.1,79,29.98,10.0,NW,8.1,-,N/A,,Clear,310,2011-11-01 09:52:00
5:52 AM,39.9,35.1,83,30.01,10.0,WNW,11.5,-,N/A,,Clear,290,2011-11-01 10:52:00
6:52 AM,39.9,34.0,79,30.02,10.0,WNW,9.2,-,N/A,,Clear,300,2011-11-01 11:52:00
7:52 AM,39.0,33.1,79,30.04,10.0,WNW,12.7,-,N/A,,Clear,290,2011-11-01 12:52:00
8:52 AM,37.0,30.9,79,30.06,10.0,WNW,9.2,-,N/A,,Clear,300,2011-11-01 13:52:00
9:52 AM,39.0,32.0,76,30.07,10.0,Variable,3.5,-,N/A,,Clear,0,2011-11-01 14:52:00
10:52 AM,41.0,32.0,70,30.09,10.0,WNW,8.1,-,N/A,,Clear,290,2011-11-01 15:52:00
11:52 AM,43.0,32.0,65,30.10,10.0,WNW,8.1,-,N/A,,Clear,300,2011-11-01 16:52:00
12:52 PM,46.9,33.1,59,30.10,10.0,NW,10.4,-,N/A,,Clear,320,2011-11-01 17:52:00
1:52 PM,48.2,30.2,50,30.07,10.0,NW,9.2,-,N/A,,Clear,310,2011-11-01 18:52:00
2:52 PM,51.1,26.1,38,30.09,10.0,NNW,13.8,19.6,N/A,,Clear,330,2011-11-01 19:52:00
3:52 PM,51.1,26.1,38,30.10,10.0,North,13.8,-,N/A,,Clear,350,2011-11-01 20:52:00
4:52 PM,48.9,25.0,39,30.13,10.0,NNW,13.8,-,N/A,,Clear,330,2011-11-01 21:52:00
5:52 PM,48.0,26.1,42,30.14,10.0,NNW,6.9,-,N/A,,Clear,330,2011-11-01 22:52:00
6:52 PM,46.0,27.0,47,30.17,10.0,NW,4.6,-,N/A,,Clear,310,2011-11-01 23:52:00
7:52 PM,45.0,27.0,49,30.21,10.0,NNW,12.7,-,N/A,,Clear,330,2011-11-02 00:52:00
8:52 PM,43.0,27.0,53,30.24,10.0,NW,11.5,19.6,N/A,,Clear,320,2011-11-02 01:52:00
9:52 PM,42.1,28.0,58,30.26,10.0,NNW,10.4,-,N/A,,Clear,330,2011-11-02 02:52:00
10:52 PM,39.9,27.0,60,30.30,10.0,NNW,10.4,-,N/A,,Clear,330,2011-11-02 03:52:00
11:52 PM,37.0,25.0,62,30.33,10.0,WNW,4.6,-,N/A,,Clear,300,2011-11-02 04:52:00